Regional Weather Roundup
Issued by NWS Charleston, WV

Home | Current Version | Previous Version | Text Only | Print | Product List | Glossary Off
Versions: 1 2 3 4 5 6 7 8 9 10 11 12 13 14 15 16 17 18 19 20 21 22 23 24 25 26 27 28

000
ASUS41 KRLX 210010
RWRRLX
West Virginia Regional Weather Roundup
National Weather Service Charleston WV
800 PM EDT THU JUL 20 2017

Note: "fair" indicates few or no clouds below 12,000 feet with no
significant weather and/or obstructions to visibility.

WVZ003-210100-
Northern Panhandle of West Virginia

CITY           SKY/WX    TMP DP  RH WIND       PRES   REMARKS
WHEELING       MOCLDY    74  70  87 S6        30.01S
$$

WVZ009-210100-
Northwest West Virginia

CITY           SKY/WX    TMP DP  RH WIND       PRES   REMARKS
PARKERSBURG    MOCLDY    83  73  72 SW3       30.03S
$$

WVZ006-210100-
Western West Virginia

CITY           SKY/WX    TMP DP  RH WIND       PRES   REMARKS
HUNTINGTON     PTCLDY    85  73  67 SW3       30.02S
$$

WVZ015-210100-
West Central West Virginia

CITY           SKY/WX    TMP DP  RH WIND       PRES   REMARKS
CHARLESTON     PTCLDY    85  67  54 W6        30.03R
$$

WVZ022-031-210100-
North Central West Virginia

CITY           SKY/WX    TMP DP  RH WIND       PRES   REMARKS
CLARKSBURG     CLOUDY    83  68  60 W3        30.03R
MORGANTOWN     CLOUDY    79  69  71 VRB5      30.04R
$$

WVZ025-035-042-045-210100-
Southern West Virginia

CITY           SKY/WX    TMP DP  RH WIND       PRES   REMARKS
BECKLEY        CLOUDY    78  63  59 NW6       30.12R
LOGAN          MOCLDY    82  68  61 CALM      30.07S
BLUEFIELD      CLOUDY    75  64  68 W3        30.14S
LEWISBURG      CLOUDY    79  64  59 CALM      30.10S
$$

WVZ047-210100-
Northern Mountains of West Virginia

CITY           SKY/WX    TMP DP  RH WIND       PRES   REMARKS
ELKINS         PTCLDY    79  66  64 NW3       30.09R
$$

WVZ052-210100-
Eastern Panhandle of West Virginia

CITY           SKY/WX    TMP DP  RH WIND       PRES   REMARKS
MARTINSBURG    CLEAR     89  65  44 W6        29.93R
PETERSBURG     CLEAR     86  66  51 NW8       30.00R
$$




USA.gov is the U.S. government's official web portal to all federal, state and local government web resources and services.